Ringling Museum of Art FL US WEATHERSTEM current weather conditions

sailwx.info

Wind from 211 at 4 knots gusting 9

Air temperature 32.9° C
Dewpoint 25.7° C

Last reported at 2020-Jul-06 19:50 UTC.
Time now 2020-Jul-06 20:26 UTC

Location: N 27°23' W 082°34'.
View on Google Maps.

See reports from other nearby stations

  
Tides and Currents Weather Stations Pressure Air Temp Water Temp Dewpoint Dewpoint Depression Visibility Wind Speed Wind Dir Waves Ship Positions
date/time (UTC)wind fromknots sea level pressurealtimeterstation pressurevisibilityair tempwater tempwave heightnotes
2020-Jul-06 19:50 211 4 gusting 9 32.9
2020-Jul-06 19:40 246 6 gusting 11 32.8
2020-Jul-06 19:30 207 5 gusting 9 32.7
2020-Jul-06 19:20 227 12 gusting 12 32.8
2020-Jul-06 19:10 216 8 gusting 12 32.7
2020-Jul-06 18:50 191 6 gusting 10 32.4
2020-Jul-06 18:40 223 6 gusting 12 32.7
2020-Jul-06 18:30 232 4 gusting 10 32.8
2020-Jul-06 18:20 227 8 gusting 10 32.3
2020-Jul-06 18:10 261 2 gusting 11 32.5
2020-Jul-06 18:00 255 13 gusting 13 32.4
2020-Jul-06 17:50 186 2 gusting 12 32.6
2020-Jul-06 17:40 259 3 gusting 9 32.7
2020-Jul-06 17:30 209 0 gusting 8 32.8
2020-Jul-06 17:20 155 6 gusting 8 32.7
2020-Jul-06 17:10 208 5 gusting 8 32.9
2020-Jul-06 17:00 182 4 gusting 6 32.9
2020-Jul-06 16:50 226 5 gusting 9 32.4
2020-Jul-06 16:40 222 5 gusting 9 32.6
2020-Jul-06 16:30 190 3 gusting 9 32.6
2020-Jul-06 16:20 235 5 gusting 8 33.1
2020-Jul-06 16:10 222 1 gusting 7 32.6
2020-Jul-06 16:00 226 3 gusting 8 32.8
2020-Jul-06 15:50 234 4 gusting 7 32.9
2020-Jul-06 15:40 173 1 gusting 7 32.6
2020-Jul-06 15:30 223 2 gusting 8 32.3
2020-Jul-06 15:20 234 3 gusting 7 32.5
2020-Jul-06 15:10 215 5 gusting 8 32.1
2020-Jul-06 15:00 025 0 gusting 7 32.1
2020-Jul-06 14:50 226 4 gusting 8 31.7
2020-Jul-06 14:40 192 3 gusting 9 31.3
2020-Jul-06 14:30 243 3 gusting 6 31.4
2020-Jul-06 14:20 218 6 gusting 8 31.2
2020-Jul-06 14:10 179 2 gusting 8 30.9
2020-Jul-06 14:00 180 3 gusting 10 30.9
2020-Jul-06 13:50 222 4 gusting 8 30.8
2020-Jul-06 13:40 173 2 gusting 7 30.7
2020-Jul-06 13:30 163 0 gusting 6 30.4
2020-Jul-06 13:20 198 1 gusting 7 29.8
2020-Jul-06 13:10 207 6 gusting 7 29.3
2020-Jul-06 13:00 200 2 gusting 8 28.9
2020-Jul-06 12:50 198 6 gusting 8 28.3
2020-Jul-06 12:40 194 0 gusting 3 27.8
2020-Jul-06 12:30 27.5
2020-Jul-06 12:20 136 0 gusting 2 27.1
2020-Jul-06 12:10 136 1 gusting 3 26.7
2020-Jul-06 12:00 26.4
2020-Jul-06 11:50 26.1
2020-Jul-06 11:40 140 0 gusting 2 25.8
2020-Jul-06 11:30 141 0 gusting 2 25.6
2020-Jul-06 11:20 150 0 gusting 2 25.3
2020-Jul-06 11:10 150 0 gusting 2 25.2
2020-Jul-06 11:00 150 0 gusting 2 25.1
2020-Jul-06 10:50 149 0 gusting 2 25.0
2020-Jul-06 10:40 25.0
2020-Jul-06 10:30 144 0 gusting 3 24.9
2020-Jul-06 10:20 132 1 gusting 4 25.0
2020-Jul-06 10:10 24.9
2020-Jul-06 10:00 149 1 gusting 3 24.9
2020-Jul-06 09:50 25.0
2020-Jul-06 09:40 25.0
2020-Jul-06 09:30 133 1 gusting 4 25.1
2020-Jul-06 09:20 144 1 gusting 4 25.1
2020-Jul-06 09:10 140 1 gusting 2 25.1
2020-Jul-06 09:00 25.1
2020-Jul-06 08:50 110 1 gusting 6 25.1
2020-Jul-06 08:40 155 1 gusting 5 24.9
2020-Jul-06 08:30 154 0 gusting 2 24.9
2020-Jul-06 08:20 24.9
2020-Jul-06 08:10 24.9
2020-Jul-06 08:00 152 1 gusting 5 24.8
2020-Jul-06 07:50 146 1 gusting 5 24.8
2020-Jul-06 07:40 24.7
2020-Jul-06 07:30 163 0 gusting 4 24.7
2020-Jul-06 07:20 135 3 gusting 6 24.7
2020-Jul-06 07:10 150 0 gusting 5 24.7
2020-Jul-06 07:00 148 0 gusting 3 24.7
2020-Jul-06 06:50 154 0 gusting 6 24.7
2020-Jul-06 06:40 146 1 gusting 5 24.7
2020-Jul-06 06:30 149 1 gusting 6 24.7
2020-Jul-06 06:20 153 3 gusting 7 24.7
2020-Jul-06 06:10 138 0 gusting 6 24.8
2020-Jul-06 06:00 113 1 gusting 3 24.8
2020-Jul-06 05:50 111 2 gusting 4 24.8
2020-Jul-06 05:40 153 0 gusting 6 24.9
2020-Jul-06 05:30 163 0 gusting 3 25.1
2020-Jul-06 05:10 25.1
2020-Jul-06 05:00 180 0 gusting 2 25.0
2020-Jul-06 04:50 25.1
2020-Jul-06 04:30 121 0 gusting 6 25.1
2020-Jul-06 04:20 123 1 gusting 3 25.1
2020-Jul-06 04:10 113 1 gusting 8 25.2
2020-Jul-06 04:00 137 6 gusting 7 25.5
2020-Jul-06 03:50 119 1 gusting 8 25.8
2020-Jul-06 03:40 153 1 gusting 9 26.1
2020-Jul-06 03:30 26.3
2020-Jul-06 03:20 165 5 gusting 6 26.6
2020-Jul-06 03:10 161 1 gusting 7 26.7
2020-Jul-06 03:00 166 2 gusting 6 26.9
2020-Jul-06 02:50 167 3 gusting 6 27.1
2020-Jul-06 02:40 27.4
2020-Jul-06 02:30 130 0 gusting 6 27.9
2020-Jul-06 02:20 168 0 gusting 2 28.2
2020-Jul-06 02:10 178 0 gusting 6 28.1
2020-Jul-06 02:00 217 3 gusting 8 27.7
2020-Jul-06 01:40 192 0 gusting 5 27.2
2020-Jul-06 01:20 145 16 gusting 16 29.7
2020-Jul-06 01:00 169 1 gusting 6 29.8
2020-Jul-06 00:50 225 2 gusting 9 29.9
2020-Jul-06 00:40 167 0 gusting 8 29.9
2020-Jul-06 00:30 205 3 gusting 8 29.9
2020-Jul-06 00:20 171 5 gusting 8 30.0
2020-Jul-06 00:10 219 0 gusting 8 30.2
2020-Jul-06 00:00 30.4
2020-Jul-05 23:50 263 2 gusting 7 30.7
2020-Jul-05 23:40 213 3 gusting 10 30.8
2020-Jul-05 23:30 250 6 gusting 8 30.9
2020-Jul-05 23:20 195 1 gusting 7 30.9
2020-Jul-05 23:10 247 6 gusting 8 30.8
2020-Jul-05 23:00 217 2 gusting 11 30.8
2020-Jul-05 22:40 222 1 gusting 6 31.2
2020-Jul-05 22:30 192 6 gusting 9 31.1
2020-Jul-05 22:20 250 6 gusting 9 31.3
2020-Jul-05 22:10 211 5 gusting 7 31.2
2020-Jul-05 22:00 242 3 gusting 8 31.1
2020-Jul-05 21:50 253 1 gusting 11 31.1
2020-Jul-05 21:40 233 6 gusting 10 31.4
2020-Jul-05 21:30 252 8 gusting 8 32.1
2020-Jul-05 21:20 215 5 gusting 10 32.2
2020-Jul-05 21:10 240 7 gusting 11 32.2
2020-Jul-05 21:00 246 3 gusting 12 32.7
2020-Jul-05 20:50 252 6 gusting 11 32.6
2020-Jul-05 20:40 259 6 gusting 10 32.4
2020-Jul-05 20:30 201 6 gusting 12 32.3
2020-Jul-05 20:20 246 8 gusting 8 32.6
2020-Jul-05 20:10 194 0 gusting 10 32.4
2020-Jul-05 20:00 225 2 gusting 9 32.4
2020-Jul-05 19:50 161 1 gusting 9 32.4
2020-Jul-05 19:40 170 4 gusting 10 32.1
2020-Jul-05 19:30 168 4 gusting 10 32.4
2020-Jul-05 19:10 211 5 gusting 12 32.3
2020-Jul-05 19:00 254 2 gusting 13 32.3
2020-Jul-05 18:50 212 2 gusting 13 32.4
2020-Jul-05 18:40 236 7 gusting 10 32.3
2020-Jul-05 18:30 240 7 gusting 8 32.4
2020-Jul-05 18:10 163 1 gusting 9 32.2
2020-Jul-05 18:00 235 4 gusting 8 32.2
2020-Jul-05 17:50 245 8 gusting 8 32.1
2020-Jul-05 17:40 237 3 gusting 8 32.1
2020-Jul-05 17:30 208 0 gusting 9 32.2
2020-Jul-05 17:10 209 6 gusting 8 32.2
2020-Jul-05 17:00 215 5 gusting 7 32.0
2020-Jul-05 16:50 170 5 gusting 8 31.9
2020-Jul-05 16:40 202 0 gusting 12 31.7
2020-Jul-05 16:30 165 3 gusting 6 31.6
2020-Jul-05 16:10 217 0 gusting 8 30.9
2020-Jul-05 16:00 181 3 gusting 7 30.6
2020-Jul-05 15:50 206 6 gusting 8 29.9
2020-Jul-05 15:40 201 1 gusting 7 29.6
2020-Jul-05 15:30 161 1 gusting 6 29.6
2020-Jul-05 15:10 171 1 gusting 5 27.6
2020-Jul-05 15:00 155 3 gusting 6 27.1
2020-Jul-05 14:50 26.6
2020-Jul-05 14:40 167 2 gusting 5 26.3
2020-Jul-05 14:30 172 4 gusting 5 25.9
2020-Jul-05 14:10 25.3
2020-Jul-05 14:00 189 2 gusting 2 25.3
2020-Jul-05 13:50 25.2
2020-Jul-05 13:40 25.1
2020-Jul-05 13:30 25.7
2020-Jul-05 13:10 112 26.3
2020-Jul-05 13:00 194 8 gusting 8 27.0
2020-Jul-05 12:50 119 0 gusting 6 26.8
2020-Jul-05 12:40 26.7
2020-Jul-05 12:30 117 0 gusting 6 26.4
2020-Jul-05 12:10 060 25.7
2020-Jul-05 12:00 069 0 gusting 4 25.5
2020-Jul-05 11:50 25.5
2020-Jul-05 11:40 051 0 gusting 5 25.5
2020-Jul-05 11:10 107 0 gusting 2 25.4
2020-Jul-05 11:00 25.3
2020-Jul-05 10:50 104 0 gusting 3 25.3
2020-Jul-05 10:40 096 0 gusting 5 25.3
2020-Jul-05 10:30 085 0 gusting 5 25.2
2020-Jul-05 10:10 105 1 gusting 3 25.3
2020-Jul-05 10:00 25.4
2020-Jul-05 09:50 101 0 gusting 3 25.5
2020-Jul-05 09:40 25.6
2020-Jul-05 09:30 086 2 gusting 3 25.6
2020-Jul-05 09:10 107 1 gusting 5 25.6
2020-Jul-05 09:00 170 1 gusting 6 25.7
2020-Jul-05 08:50 076 1 gusting 2 25.7
2020-Jul-05 08:40 25.7
2020-Jul-05 08:30 098 0 gusting 5 25.8
2020-Jul-05 08:10 26.2
2020-Jul-05 08:00 26.3
2020-Jul-05 07:50 159 0 gusting 2 26.4
2020-Jul-05 07:30 26.5
2020-Jul-05 07:10 26.7
2020-Jul-05 07:00 26.8
2020-Jul-05 06:50 27.0
2020-Jul-05 06:40 169 0 gusting 1 27.3
2020-Jul-05 06:30 27.7
2020-Jul-05 06:10 242 0 gusting 1 28.3
2020-Jul-05 06:00 28.7
2020-Jul-05 05:50 28.8
2020-Jul-05 05:40 242 0 gusting 4 28.8
2020-Jul-05 05:30 247 0 gusting 4 28.8
2020-Jul-05 05:10 240 1 gusting 4 28.8
2020-Jul-05 05:00 249 1 gusting 6 28.7
2020-Jul-05 04:50 242 3 gusting 6 28.5
2020-Jul-05 04:40 220 4 gusting 5 28.2
2020-Jul-05 04:30 27.8
2020-Jul-05 04:10 27.3
2020-Jul-05 04:00 27.3
2020-Jul-05 03:50 27.3
2020-Jul-05 03:40 27.4
2020-Jul-05 03:30 27.6
2020-Jul-05 03:10 27.7
2020-Jul-05 03:00 148 2 gusting 3 27.7
2020-Jul-05 02:50 27.8
2020-Jul-05 02:40 27.9
2020-Jul-05 02:30 28.1
2020-Jul-05 02:10 28.4
2020-Jul-05 02:00 113 0 gusting 2 28.8
2020-Jul-05 01:50 28.7
2020-Jul-05 01:40 28.8
2020-Jul-05 01:30 28.9
2020-Jul-05 01:00 187 2 gusting 7 29.2
2020-Jul-05 00:50 175 3 gusting 6 29.4
2020-Jul-05 00:40 29.7
2020-Jul-05 00:30 236 1 gusting 6 29.7
2020-Jul-05 00:10 277 6 gusting 7 29.9
2020-Jul-05 00:00 302 4 gusting 8 30.1
2020-Jul-04 23:50 298 2 gusting 8 30.3
2020-Jul-04 23:40 284 6 gusting 7 30.4
2020-Jul-04 23:30 219 2 gusting 6 30.4
2020-Jul-04 23:10 273 3 gusting 8 30.6
2020-Jul-04 23:00 282 2 gusting 7 30.6
2020-Jul-04 22:50 277 2 gusting 8 30.5
2020-Jul-04 22:40 259 7 gusting 7 30.4
2020-Jul-04 22:30 242 1 gusting 8 30.2
2020-Jul-04 22:10 285 3 gusting 9 29.5
2020-Jul-04 22:00 268 6 gusting 11 29.2
2020-Jul-04 21:50 250 1 gusting 13 29.7
2020-Jul-04 21:40 271 6 gusting 13 30.8
2020-Jul-04 21:30 286 2 gusting 10 31.2
2020-Jul-04 21:10 275 1 gusting 7 31.1
2020-Jul-04 21:00 251 4 gusting 7 30.9
2020-Jul-04 20:50 269 5 gusting 6 30.6
2020-Jul-04 20:40 273 0 gusting 6 29.9
2020-Jul-04 20:10 261 10 gusting 13 29.8
2020-Jul-04 20:00 246 6 gusting 13 30.1